Forside
METAR-TAF:

METAR-TAF

Lufthavne :

Morris Municipal Airport (James R. Washburn Field)

Morris, Illinois, USA

Breddekreds: 41-25-31N, længdekreds: 088-25-07W, højde: 178 m

Aktuelle vejr

Denne rapport blev lavet for 25 minutter siden, kl. 02:35 UTC
Vind 12 kt fra syd
Temperatur 25°C
Fugtighed 74%
Tryk 1013 hPa
Sigt: 16.1 km
skyfri

METAR: KC09 250235Z AUTO 17012KT 10SM CLR 25/20 A2990 RMK AO2 T02530202

Tid: 22:00 (03:00 UTC)


TAF: fraværende

Vejrobservationer og prognoser fra mere end 4000 lufthavne (METAR og TAF).

De gule og røde prikker repræsenterer de meteorologiske stationer.

Flyt musen over at se navnet på stationen.

Så klik over at se vejr observationer og prognoser.

At skifte det kort: Klik på de grønne knapper med et sort kors for at zoome ind; på den grønne knap med en bindestreg for at zoome ud; eller på de grønne pile for tilstødende kort.


METAR-TAF: